sat.trackr.live / text

‹ back to catalog

STARLINK-37531

NORAD 69136 · 2026-110N

PAYLOAD ACTIVE UNKNOWN

§ Identity

Operator
Country
US
Launch date
2026-05-20
Launch site
AFWTR
Launch vehicle
Mass (kg)
RCS (m²)

Purposes: comms

External: N2YO · Heavens-Above · Gunter

§ Orbital elements

Epoch: 2026-09-19T18:19:59.988864Z

Period
93.91 min
Inclination
97.2852°
Eccentricity
0.0001327
Mean motion
15.33454931 rev/d
Perigee alt
464.6 km
Apogee alt
466.4 km
Semi-major
6,843.7 km
B*
4.6335e-4
RAAN
97.8357°
Arg perigee
47.1740°
Mean anomaly
312.9614°
Rev number
2,010

§ Raw data

STARLINK-375311 69136U 26110N   26262.76388876  .00014918  00000+0  46335-3 0  99922 69136  97.2852  97.8357 0001327  47.1740 312.9614 15.33454931 20102

JSON: /api/v1/satellites/69136 · /tle

For live sub-satellite position, see the globe view (requires WebGL).

§ Visibility from observer

Set your observer location to see the next 7 days of passes ≥ 10°. The values pass through the URL so the page stays shareable.

No JS? Fill the form by hand. The geolocation button needs JavaScript.